This demonstration page uses our WeatherBlox Daily Observations layout. Learn more.

Left ArrowRight Arrow

Hourly Observations for October 28, 2021

Temp ( °F °C ) Dew Point ( °F °C ) Humidity (%) Winds ( mph kmh ) Pressure ( in mb ) Visibility ( mi km ) Precip ( " mm )
12:56 am 00:56 Clear 44 6.7 36 2.2 73 73 NW 13 20 29.81 1009 10 16 0.00 0.00
1:56 am 01:56 Clear 43 6.1 34 1.1 71 71 NW 14 22 29.82 1010 10 16 0.00 0.00
2:56 am 02:56 Clear 44 6.7 35 1.7 71 71 NNW 15 24 29.83 1010 10 16 0.00 0.00
3:56 am 03:56 Clear 45 7.2 35 1.7 68 68 NNW 20 31 29.82 1010 10 16 0.00 0.00
4:56 am 04:56 Clear 45 7.2 35 1.7 68 68 NNW 16 26 29.83 1010 10 16 0.00 0.00
5:56 am 05:56 Clear 45 7.2 35 1.7 68 68 NNW 20 31 29.84 1011 10 16 0.00 0.00
6:56 am 06:56 Clear 46 7.8 33 0.6 61 61 NNW 23 37 29.84 1011 10 16 0.00 0.00
7:56 am 07:56 Clear 45 7.2 31 -0.6 58 58 NNW 22 35 29.88 1012 10 16 0.00 0.00
8:56 am 08:56 Sunny 46 7.8 31 -0.6 56 56 NNW 25 41 29.88 1012 10 16 0.00 0.00
9:56 am 09:56 Sunny 49 9.4 31 -0.6 50 50 NNW 26 43 29.90 1013 10 16 0.00 0.00
10:56 am 10:56 Sunny 52 11.1 32 0 47 47 NNW 29 46 29.91 1013 10 16 0.00 0.00
11:56 am 11:56 Sunny 55 12.8 32 0 42 42 NNW 32 52 29.92 1013 10 16 0.00 0.00
12:56 pm 12:56 Sunny 57 13.9 31 -0.6 37 37 NNW 32 52 29.92 1013 10 16 0.00 0.00
1:56 pm 13:56 Sunny 59 15 30 -1.1 33 33 NNW 33 54 29.91 1013 10 16 0.00 0.00
2:56 pm 14:56 Sunny 59 15 30 -1.1 33 33 NNW 31 50 29.92 1013 10 16 0.00 0.00
3:56 pm 15:56 Sunny 59 15 30 -1.1 33 33 NNW 36 57 29.93 1014 10 16 0.00 0.00
4:56 pm 16:56 Sunny 59 15 29 -1.7 32 32 NNW 26 43 29.94 1014 10 16 0.00 0.00
5:56 pm 17:56 Sunny 57 13.9 28 -2.2 33 33 NNW 36 57 29.96 1015 10 16 0.00 0.00
6:56 pm 18:56 Clear 54 12.2 29 -1.7 38 38 NNW 21 33 30.00 1016 10 16 0.00 0.00
7:56 pm 19:56 Clear 52 11.1 29 -1.7 41 41 NNW 16 26 30.03 1017 10 16 0.00 0.00
8:56 pm 20:56 Clear 50 10 29 -1.7 44 44 NNW 15 24 30.05 1018 10 16 0.00 0.00
9:56 pm 21:56 Clear 48 8.9 29 -1.7 48 48 NNW 17 28 30.07 1018 10 16 0.00 0.00
10:56 pm 22:56 Clear 46 7.8 28 -2.2 50 50 NW 13 20 30.08 1019 10 16 0.00 0.00
11:56 pm 23:56 Clear 45 7.2 28 -2.2 52 52 NNW 15 24 30.09 1019 10 16 0.00 0.00

Powered by AerisWeather